GFSNGP_2pvu_pres_147.txt.gz
Presure
227 227 231 232 232 232 237 255 273 261 264 269 266 263 260 262 258 247 248 245 243 317 294 272 257 251 242 230 229 231 232 228 227 234 229 232 245 237 235 230 243 291 254 259
234 239 251 248 249 279 273 255 261 274 270 264 261 258 258 251 249 246 247 279 317 293 277 269 253 249 239 238 229 228 240 226 224 231 229 233 236 236 235 233 231 238 271 262
264 285 275 277 260 254 258 267 264 266 263 264 257 250 245 247 262 334 343 327 292 273 265 269 254 247 240 238 229 217 218 227 224 225 229 236 235 242 229 238 232 235 257 260
240 273 264 270 262 262 263 260 261 268 255 257 248 251 334 363 341 328 311 294 281 268 259 263 257 249 233 242 230 229 215 218 228 233 233 236 242 248 236 236 241 227 231 282
269 281 263 242 246 257 262 237 252 258 242 246 259 374 343 325 323 303 311 277 276 252 256 241 248 253 248 242 232 234 214 227 227 227 234 235 248 247 242 229 241 248 222 251
232 245 230 238 243 238 234 233 239 241 247 271 340 320 309 303 288 320 278 259 268 264 249 243 250 241 246 243 240 221 225 228 237 230 233 242 248 238 237 254 246 252 239 235
235 237 240 235 239 235 239 241 245 250 324 318 306 289 286 279 264 267 267 274 258 245 242 249 240 240 239 240 233 227 230 234 231 232 239 243 243 248 257 264 239 342 314 222
239 240 234 229 238 240 241 245 267 325 317 301 300 280 274 268 258 275 264 261 255 246 240 244 244 240 235 228 227 227 228 231 234 241 240 247 245 265 356 388 363 341 325 313
241 237 232 248 248 247 262 269 351 304 290 286 287 298 296 294 280 263 258 267 251 244 243 240 232 225 226 224 228 230 228 239 237 242 250 262 368 373 364 359 358 339 321 297
243 243 260 260 259 270 274 374 300 280 285 276 271 273 274 262 267 261 245 240 238 227 220 225 227 224 228 232 236 231 237 245 247 260 321 357 355 355 342 336 345 328 317 298
266 267 269 266 271 282 350 305 275 277 268 264 263 259 250 247 240 236 230 225 226 228 228 225 230 234 221 226 237 240 249 263 292 318 307 346 337 336 329 327 322 326 311 294
262 265 267 274 277 308 343 273 277 260 256 252 242 242 235 234 222 228 223 230 234 232 229 226 221 227 234 232 247 259 282 292 338 348 338 320 332 321 324 312 320 314 308 303
266 270 279 286 305 364 273 270 255 251 245 236 231 232 227 215 235 236 230 225 224 225 224 227 234 229 248 251 288 299 295 358 343 334 324 313 331 320 315 306 311 319 308 299
271 281 293 335 366 271 260 258 252 245 238 235 229 237 234 235 226 223 223 223 226 231 230 229 243 249 268 276 278 297 334 351 334 324 315 306 322 324 312 309 299 306 312 309
291 302 329 362 282 259 248 258 244 239 239 236 232 234 230 219 220 221 222 228 232 231 238 244 258 271 276 269 275 303 358 346 332 320 307 305 324 307 327 313 304 298 306 302
295 328 372 278 258 253 256 248 241 240 232 227 234 227 220 221 225 227 227 227 238 239 251 258 272 268 268 264 301 368 356 339 324 313 304 294 285 322 299 313 312 299 290 301
339 356 276 256 254 257 250 244 225 231 226 235 223 222 221 227 227 225 232 238 240 246 261 272 267 255 268 288 307 368 349 336 321 311 304 293 287 280 313 308 300 305 308 299
311 272 254 250 252 247 239 229 233 235 226 222 218 223 226 226 227 234 236 240 250 260 265 258 256 266 276 314 352 362 351 334 321 312 306 299 285 278 279 298 307 311 303 299
268 253 252 253 252 237 232 236 233 222 216 223 225 226 226 237 233 236 239 249 252 247 254 260 263 273 299 324 348 343 346 341 330 320 309 300 294 288 281 279 277 276 290 311
253 258 249 251 237 238 231 224 217 222 218 224 227 232 229 232 236 245 246 245 246 255 259 263 272 285 303 346 339 335 325 331 343 331 320 307 299 293 289 282 283 282 283 286
258 242 246 237 226 222 217 223 222 220 223 227 227 226 238 238 246 245 243 247 250 262 264 275 280 297 349 348 338 329 323 320 317 317 319 313 307 302 295 295 295 292 292 291
247 233 222 221 216 221 220 217 219 227 225 227 232 243 245 247 248 246 251 252 263 263 275 275 292 353 362 351 339 332 324 319 316 313 313 313 311 310 309 309 310 310 311 312
222 224 220 220 218 223 226 229 231 234 241 246 246 246 248 250 251 254 260 264 256 266 272 287 332 372 361 351 342 335 334 333 331 330 329 328 327 328 329 331 333 334 328 324
222 211 220 227 227 227 238 245 245 247 248 247 247 248 252 255 260 262 257 260 274 272 286 303 376 364 353 346 342 339 339 339 338 337 311 302 291 283 277 273 273 273 273 272
225 228 237 227 233 233 228 227 230 234 238 249 253 256 260 260 259 259 265 268 278 286 295 385 369 357 349 335 321 311 299 290 281 273 267 266 266 268 270 274 279 283 289 299
235 233 232 228 224 225 222 237 232 234 245 250 268 269 270 269 269 270 265 276 285 292 310 381 362 347 321 308 291 287 276 267 266 267 267 267 269 278 283 289 308 332 355 358
226 228 226 227 231 230 229 235 232 236 249 257 262 265 269 273 273 272 275 286 291 305 387 372 340 316 292 295 281 268 264 268 265 263 269 281 281 295 320 358 350 337 330 378

GFSNGP_2pvu_pres_153.txt.gz
Presure
232 247 237 239 245 241 253 242 245 250 245 240 253 246 244 281 256 266 266 272 275 266 248 251 248 256 342 330 327 322 315 292 277 269 255 246 247 236 236 242 236 227 229 240
251 249 256 262 257 250 251 251 253 253 257 257 255 264 261 259 267 281 237 257 248 252 253 256 359 351 338 322 303 296 284 270 262 256 257 243 250 238 237 233 239 237 231 235
268 269 277 278 255 254 251 254 257 256 255 252 258 252 257 267 248 244 247 250 249 247 279 331 333 321 305 291 283 281 270 262 258 252 250 243 245 247 240 241 239 233 223 228
276 280 277 258 254 254 258 257 250 253 260 257 255 252 258 251 241 244 239 243 250 282 314 314 306 302 283 280 271 273 255 251 261 258 248 243 246 241 241 247 248 245 252 251
280 272 268 261 256 257 255 251 249 253 257 254 252 252 250 239 240 244 244 255 286 301 292 289 308 286 272 271 262 256 256 252 247 245 247 245 242 243 244 249 253 254 256 253
275 267 267 258 245 255 258 252 253 244 251 243 249 249 241 244 249 241 253 278 301 285 274 277 284 273 249 261 263 262 248 242 240 245 241 241 242 245 243 243 243 240 240 244
268 272 269 252 257 253 251 251 255 251 242 247 249 239 242 245 245 249 271 296 311 275 266 262 271 263 260 255 251 245 246 243 241 243 241 240 239 239 237 236 240 242 244 248
265 262 264 255 251 256 257 255 252 249 254 251 245 247 251 250 260 287 288 287 297 276 260 264 263 262 259 251 245 242 239 238 236 232 235 236 231 233 235 238 245 256 273 321
270 268 261 254 255 250 256 257 252 248 252 254 251 257 266 261 301 290 279 280 284 285 275 265 257 253 241 238 231 235 230 229 233 232 230 231 229 238 244 252 303 302 281 359
258 258 252 247 254 259 253 253 258 256 259 269 263 260 272 287 319 274 262 270 267 264 252 246 228 236 235 229 229 231 233 219 225 229 237 241 249 271 281 284 283 358 366 353
257 252 249 258 260 257 257 260 264 260 261 269 272 270 291 370 274 267 268 250 248 237 233 226 221 227 231 236 233 218 224 228 230 237 248 260 272 277 286 293 334 367 355 343
255 247 260 263 264 263 264 260 245 265 268 271 279 288 381 278 264 257 243 242 226 230 229 228 233 234 230 222 220 227 228 236 240 243 259 257 266 282 290 299 356 361 351 338
263 267 265 265 262 265 270 262 263 269 273 292 305 373 287 264 254 241 240 230 230 226 235 230 236 232 224 224 227 230 238 237 241 253 260 263 283 279 288 364 366 349 348 339
262 161 262 264 262 208 157 190 260 276 288 302 354 284 261 253 249 238 235 228 230 231 230 233 230 225 225 228 235 237 239 239 250 258 263 276 275 289 317 380 362 348 338 328
264 260 257 195 260 260 265 258 265 291 294 333 279 266 253 251 243 239 233 232 227 230 231 226 222 226 228 236 236 240 244 250 255 266 275 277 289 301 358 358 351 345 335 326
266 258 261 185 258 238 268 255 282 293 321 299 270 253 248 247 240 235 234 233 230 226 219 225 227 233 230 235 239 246 252 255 263 270 279 286 302 356 351 345 338 340 337 332
256 258 261 258 261 228 269 279 294 327 308 266 259 252 246 238 236 238 233 229 218 222 225 225 232 230 237 242 246 250 256 264 269 282 290 295 370 365 354 341 335 328 331 342
265 196 171 271 270 277 281 301 340 291 263 248 259 252 240 235 231 226 226 215 225 222 228 229 235 242 246 244 252 258 265 278 283 287 288 387 377 364 352 346 337 329 325 322
223 278 281 279 290 303 317 358 284 258 252 254 250 244 242 227 225 215 223 222 225 228 235 241 243 242 248 252 260 268 267 280 286 291 316 386 376 365 358 354 350 347 347 345
217 295 301 300 335 413 307 281 251 253 250 246 235 235 219 215 222 221 225 230 236 241 236 235 241 243 250 259 258 263 278 274 287 300 390 374 362 350 342 336 326 315 305 292
310 321 382 391 301 283 262 256 253 249 243 235 220 214 220 222 226 227 237 237 227 236 237 233 231 258 260 261 268 276 280 290 295 302 390 372 332 318 303 292 279 274 269 268
382 346 293 280 267 254 255 251 246 233 215 217 219 222 226 227 231 232 225 224 227 230 230 231 252 260 267 271 272 280 289 291 293 320 389 354 318 294 296 279 269 266 271 274
285 277 268 258 251 249 243 226 216 221 219 222 226 229 228 228 226 225 226 227 225 231 230 245 260 267 266 271 279 282 294 298 302 343 387 333 297 298 289 273 265 269 272 269
265 259 254 249 240 226 226 223 224 223 226 229 229 228 223 223 226 227 225 228 234 239 252 257 264 266 272 279 280 296 297 296 328 404 373 320 296 293 282 265 267 270 269 280
247 243 231 228 226 222 225 226 232 237 233 229 226 223 224 228 217 226 228 233 238 250 261 272 276 278 275 281 300 295 298 327 386 383 332 301 291 286 266 268 267 272 282 290
227 226 226 229 228 229 236 234 225 222 225 226 223 229 235 222 226 230 239 242 255 261 270 275 278 278 282 302 306 303 329 379 391 335 302 288 281 265 269 267 274 282 292 314
228 229 236 236 233 228 225 228 230 225 223 224 230 231 223 230 238 239 242 249 258 273 277 280 279 289 306 307 310 336 392 388 331 304 285 275 263 268 267 276 283 292 317 357

GFSNGP_2pvu_pres_159.txt.gz
Presure
202 198 199 211 205 220 223 236 222 223 250 266 288 283 289 277 269 266 270 266 257 256 255 266 261 260 261 262 250 251 257 305 320 306 303 293 285 279 275 276 281 268 258 251
211 215 221 220 251 238 237 233 250 256 283 284 287 281 268 265 265 266 263 258 253 252 261 259 253 258 259 255 245 260 310 322 305 297 278 268 266 264 254 251 258 264 244 248
256 248 250 250 244 251 279 277 275 273 279 278 280 268 263 262 262 262 257 252 250 259 259 252 255 254 257 252 260 315 287 302 282 280 274 268 258 256 258 253 245 246 250 251
261 250 261 252 268 281 267 273 274 290 282 279 268 268 262 267 265 258 254 255 256 257 255 251 260 259 261 265 300 296 277 289 261 251 261 254 248 244 245 244 243 246 245 247
301 311 294 290 279 269 269 294 291 279 280 273 267 263 274 269 263 255 256 257 253 257 256 262 261 257 265 283 304 273 294 272 259 265 258 258 250 252 252 252 246 244 241 239
297 290 290 291 281 284 288 286 275 279 275 266 263 270 267 264 259 260 257 260 257 257 256 260 257 279 272 292 282 267 272 257 255 259 252 256 249 242 242 233 229 233 230 231
296 299 293 303 287 280 289 286 283 269 260 257 265 265 266 260 260 257 257 254 258 258 259 260 274 273 288 290 271 274 266 265 258 257 255 239 231 229 234 231 228 228 235 235
289 295 294 282 285 285 280 274 266 260 262 266 258 265 265 263 256 256 255 253 257 260 269 272 275 293 278 293 273 265 261 260 244 232 233 235 237 230 225 227 232 235 241 243
290 289 298 288 273 272 267 265 268 265 258 266 267 265 265 264 258 256 251 261 268 272 274 274 275 287 282 280 265 261 248 239 229 237 236 231 226 225 228 233 240 243 249 260
283 291 287 282 274 267 265 263 270 270 266 269 259 263 268 259 252 255 263 268 266 274 278 320 302 266 271 262 246 238 236 237 235 235 228 226 227 230 237 239 242 254 257 265
289 293 279 279 273 269 273 214 268 270 271 265 264 257 258 251 257 262 261 260 266 293 351 329 274 263 259 234 229 230 237 230 229 228 224 227 230 236 237 249 251 254 261 271
290 280 275 281 284 286 280 271 269 262 260 265 259 256 255 260 262 257 260 264 288 334 320 274 264 248 238 226 237 237 231 228 225 227 227 231 236 241 247 249 255 261 270 281
279 279 284 286 292 285 225 271 271 268 257 254 255 258 266 266 260 262 262 281 320 318 277 261 244 240 235 231 233 233 229 222 226 226 232 238 242 240 246 249 261 270 279 289
280 280 281 283 283 264 275 273 246 256 192 259 259 270 247 186 266 260 272 298 341 276 262 247 234 235 228 230 233 228 222 224 227 235 239 236 231 241 244 255 262 269 280 290
284 287 286 280 277 270 272 267 262 255 254 257 268 261 251 263 261 270 280 344 276 266 253 239 231 234 231 232 228 220 224 231 236 235 230 234 237 242 252 264 266 277 288 291
294 290 282 271 270 274 268 262 261 260 258 165 265 263 261 260 274 281 336 278 264 255 247 238 234 236 234 227 223 227 234 232 226 228 230 232 241 252 262 273 276 279 287 303
288 281 283 288 280 144 268 266 265 266 270 269 264 201 265 273 286 317 294 264 255 244 231 239 235 229 221 224 232 235 222 228 228 229 234 240 252 259 266 275 282 286 289 309
294 292 289 279 278 270 270 267 267 266 248 263 257 265 278 281 310 291 266 252 246 243 232 229 224 220 226 236 228 224 224 227 228 238 240 245 254 262 276 280 282 287 306 316
290 286 283 284 280 274 272 275 278 274 264 266 252 281 280 311 277 266 259 253 246 233 227 220 225 230 236 226 224 228 228 233 237 239 247 257 260 270 278 282 289 300 316 318
283 287 287 279 272 274 280 279 276 275 281 291 287 300 318 272 262 260 255 239 231 223 226 229 232 230 223 224 233 228 237 235 241 242 256 260 267 276 285 291 300 319 319 341
305 291 288 281 281 285 284 280 289 293 272 303 326 416 262 261 249 240 237 225 223 228 235 232 230 219 227 228 230 230 235 242 243 250 263 264 273 285 294 308 320 325 348 403
317 310 296 291 292 296 300 308 306 317 380 381 269 263 255 245 240 233 224 226 234 237 229 226 225 222 222 229 229 232 240 241 251 258 264 271 285 294 309 324 330 355 398 353
238 307 287 307 310 305 307 348 375 324 266 261 256 251 243 235 228 226 232 239 229 227 230 227 224 225 227 230 232 238 243 250 255 266 268 285 297 309 329 339 385 388 343 319
312 318 318 319 336 357 333 268 264 261 258 253 242 229 231 231 233 240 232 226 230 234 225 229 229 232 238 234 235 243 245 255 267 270 285 301 314 337 352 407 376 336 314 300
326 335 351 323 282 269 260 259 257 253 234 228 229 232 238 240 236 224 225 228 225 228 230 230 232 235 232 236 243 244 255 268 271 287 303 324 348 358 402 366 332 313 294 282
304 287 272 264 259 259 256 241 230 232 232 233 226 234 232 229 231 229 232 234 231 229 237 232 234 237 236 241 251 259 268 272 291 309 343 356 352 389 357 329 311 285 281 274
263 262 259 242 234 229 232 233 229 220 226 230 228 229 230 233 235 230 227 234 233 236 228 239 234 237 246 256 265 268 275 299 319 354 355 366 380 350 324 302 281 281 274 269

GFSNGP_2pvu_pres_162.txt.gz
Presure
214 216 212 206 213 234 245 241 209 205 217 229 238 221 219 224 251 246 256 269 281 282 270 264 265 263 262 262 256 263 260 264 260 265 289 317 293 280 278 273 268 268 266 269
274 259 246 243 253 236 249 240 240 242 240 235 240 243 254 247 283 272 282 279 278 274 269 265 264 264 263 260 258 261 260 260 264 300 296 278 279 267 250 262 256 251 249 252
251 247 227 244 269 246 247 257 271 264 268 276 266 262 275 271 272 275 278 274 275 270 262 263 267 264 258 258 260 269 261 264 282 293 297 280 273 259 256 253 251 253 244 249
277 268 270 265 271 269 265 265 266 272 238 271 277 271 270 269 274 276 275 274 267 267 268 271 267 260 258 261 263 263 264 280 303 274 283 275 263 251 253 250 244 245 251 252
294 286 289 282 274 271 274 280 282 277 288 276 272 274 274 283 273 272 276 268 266 274 269 265 261 258 262 261 267 264 277 290 281 264 280 260 264 253 256 254 255 251 243 239
292 283 287 282 277 278 268 283 286 276 276 278 283 281 278 271 273 276 270 263 270 267 265 262 261 254 262 262 269 275 285 293 270 271 261 247 255 254 254 243 239 230 231 232
292 283 283 284 282 276 275 262 267 268 270 274 277 271 276 275 272 264 264 273 271 273 263 258 257 258 261 273 272 272 288 286 290 254 259 261 259 245 239 231 233 232 228 229
293 283 281 278 289 276 277 274 271 271 278 280 280 283 269 272 266 263 268 281 272 264 264 261 254 262 274 272 276 293 279 283 278 263 259 244 237 237 237 234 229 228 229 235
293 280 273 269 271 284 269 273 280 278 273 278 268 260 261 261 267 268 265 265 264 262 259 252 268 275 271 294 328 289 287 280 264 252 236 228 240 237 232 229 228 229 238 243
290 279 271 272 277 274 278 274 272 289 287 268 265 266 265 271 273 266 273 266 257 259 257 271 272 270 293 370 308 274 285 260 239 233 236 236 233 230 227 226 233 242 245 242
288 282 284 281 276 278 281 267 281 273 273 263 264 269 267 270 274 272 266 259 260 260 267 263 266 283 353 308 272 273 241 229 236 239 234 232 227 227 228 238 242 238 240 247
294 291 284 282 291 294 297 279 272 270 269 264 264 272 265 269 264 268 257 255 258 266 267 268 269 342 306 272 264 248 236 234 237 234 232 227 223 231 240 235 238 235 240 246
296 304 302 293 291 284 282 296 284 284 276 276 273 211 269 268 269 254 254 258 201 263 263 267 298 337 278 268 248 240 231 232 232 232 226 224 235 236 226 235 232 243 243 254
298 294 291 308 310 313 292 287 281 263 244 270 264 267 274 262 253 257 258 173 260 263 261 273 358 282 266 249 240 237 229 228 233 226 223 237 228 228 228 233 240 242 254 262
237 294 290 291 293 288 278 273 280 275 268 269 273 273 264 260 254 256 263 260 258 257 269 340 284 269 259 239 237 232 232 234 226 227 236 227 225 224 232 238 242 248 260 264
304 309 306 290 283 281 277 280 273 277 269 267 270 268 264 238 254 262 222 260 258 260 309 308 267 259 248 240 235 232 230 223 229 231 226 225 227 236 236 241 242 253 262 268
285 291 301 301 298 295 294 286 282 277 268 269 158 264 257 259 263 199 255 252 262 285 331 268 257 250 243 237 230 227 217 231 229 224 229 230 233 232 240 240 248 263 265 275
354 324 311 297 285 282 282 280 273 282 279 274 248 262 213 267 268 269 260 268 277 319 268 254 250 239 236 229 222 220 233 227 223 227 229 226 228 236 240 249 255 266 271 281
351 313 300 295 304 294 287 282 283 274 272 272 272 269 267 271 273 271 268 273 315 271 254 247 243 236 229 221 227 232 226 223 224 226 228 228 233 240 247 253 265 271 279 294
340 316 302 293 294 289 286 281 277 277 272 272 272 277 283 280 277 273 280 310 271 260 252 248 240 225 224 234 231 227 225 221 223 229 230 234 240 245 252 263 271 277 293 306
335 321 301 286 283 281 275 275 278 273 273 275 279 272 282 295 292 290 353 266 258 252 242 234 219 229 236 229 228 226 226 225 232 231 236 240 241 253 262 266 276 292 308 338
341 325 309 292 283 275 275 279 282 277 280 288 294 303 309 341 395 278 261 251 241 239 225 229 238 230 232 228 226 228 225 232 228 238 238 239 254 254 265 274 291 307 349 360
343 329 314 308 297 230 281 287 295 300 310 309 332 373 329 273 264 255 247 240 229 224 237 234 225 230 225 230 229 228 229 229 238 235 240 254 257 265 274 293 309 353 360 358
330 314 308 306 309 307 309 312 311 324 354 339 281 268 261 256 250 239 228 231 236 238 227 227 230 233 230 228 235 227 233 233 238 246 252 262 263 277 294 313 361 364 390 363
320 316 317 319 313 308 313 343 327 296 267 262 257 254 245 226 227 232 240 232 228 231 234 231 226 231 232 224 232 231 235 243 248 249 262 264 278 299 333 385 394 386 355 332
320 313 321 333 339 321 288 269 262 259 256 245 227 228 230 231 233 223 228 234 232 227 228 232 230 237 228 232 233 239 248 242 251 261 266 279 302 407 404 395 367 341 320 298
307 303 296 281 269 264 260 259 241 232 233 234 226 223 226 229 231 233 229 229 237 239 236 227 227 232 234 238 243 241 244 255 260 273 282 307 388 377 353 332 318 305 288 281

GFSNGP_2pvu_pres_165.txt.gz
Presure
230 240 231 235 214 216 237 216 223 225 225 228 224 233 227 240 249 238 251 243 244 261 261 254 276 264 273 276 273 268 270 275 270 266 262 267 265 272 297 286 275 267 263 259
243 244 216 251 246 284 283 291 278 257 272 253 249 253 256 253 235 257 250 272 261 272 275 274 266 270 280 273 273 272 279 270 265 266 263 270 278 295 291 281 265 260 256 256
262 260 290 282 242 252 265 270 254 248 260 265 269 268 264 267 272 273 266 274 276 274 271 266 269 276 279 276 271 278 263 266 262 262 265 280 289 282 270 270 263 253 255 243
277 292 284 288 285 277 252 256 265 274 274 267 270 276 274 270 274 273 270 272 276 269 265 273 273 273 274 269 274 266 268 261 262 263 276 277 285 287 271 257 253 251 250 252
255 297 301 297 279 272 278 279 275 268 269 274 267 265 268 269 271 269 276 269 264 264 275 273 274 273 272 276 272 267 262 260 264 273 278 290 277 271 263 256 259 252 257 252
305 300 295 293 293 296 291 295 280 279 274 271 274 272 273 274 275 274 273 278 277 282 276 275 270 284 274 270 264 263 258 266 274 276 276 280 271 273 255 249 259 255 240 238
338 335 338 321 313 303 294 278 280 280 276 276 280 279 275 271 269 273 287 293 279 281 270 263 258 268 263 264 261 258 270 273 267 277 284 276 266 255 256 262 239 233 236 236
313 316 316 309 299 295 285 282 282 280 277 278 275 265 275 267 264 269 280 282 273 269 270 269 275 262 262 260 259 269 272 278 339 348 285 288 261 264 242 233 231 236 236 230
306 305 301 297 285 281 277 275 278 282 285 284 279 264 270 269 273 273 279 264 260 269 280 276 266 257 258 256 268 269 276 353 347 286 282 288 264 231 229 233 235 233 228 226
311 306 301 301 292 270 266 272 276 276 276 275 280 268 266 271 293 275 270 265 270 274 275 268 257 256 250 270 267 271 305 332 283 280 274 241 236 232 234 230 232 226 226 238
308 296 299 291 288 278 279 277 274 274 267 274 274 271 260 282 278 271 264 269 280 271 265 260 256 252 268 270 270 278 341 281 272 269 239 231 237 236 234 231 226 227 236 229
292 300 315 284 281 282 280 276 273 275 276 276 274 266 260 267 272 270 274 268 272 261 261 252 221 246 269 271 268 343 286 264 263 245 234 234 233 234 231 225 230 232 227 226
297 299 301 312 290 285 281 277 275 269 269 269 279 292 261 268 273 275 287 270 266 259 251 253 211 261 263 267 282 324 268 263 246 238 229 227 230 232 225 229 230 226 225 235
299 302 298 306 304 307 295 284 288 282 288 292 280 290 279 282 283 279 267 267 262 253 249 265 261 264 271 272 335 273 264 248 240 235 228 229 234 223 232 230 226 225 231 231
297 300 302 298 297 297 302 244 305 308 299 297 297 284 284 281 273 271 269 254 259 256 256 267 259 257 268 293 319 262 253 239 236 229 230 232 220 231 228 227 230 230 227 231
291 295 300 303 192 269 298 298 298 304 303 290 277 279 282 275 270 270 266 260 258 257 263 264 259 264 276 336 270 258 246 236 235 233 230 218 232 227 227 226 228 228 232 236
291 296 311 351 341 305 296 299 291 283 281 273 282 284 284 273 268 268 257 257 260 264 267 265 253 265 301 276 257 250 246 239 234 228 222 235 227 226 223 224 227 235 238 239
313 317 330 370 316 314 302 304 305 299 295 294 288 283 274 269 274 267 262 261 265 268 266 255 264 281 321 259 252 244 240 235 223 226 235 227 224 224 220 225 231 237 242 243
329 326 328 338 357 313 301 300 297 290 286 281 278 275 279 275 272 269 271 270 272 265 267 266 272 301 265 251 242 240 237 225 227 235 228 227 226 221 225 233 238 241 238 254
308 332 323 339 355 331 317 301 289 284 284 281 282 280 273 272 274 273 274 275 279 281 272 278 293 274 251 244 242 233 223 230 236 231 226 227 224 225 239 237 239 239 253 252
313 436 343 347 355 321 299 292 300 298 293 288 279 280 280 275 273 277 276 281 274 283 283 319 269 258 251 237 223 228 236 230 228 225 225 229 230 233 232 240 241 248 253 268
378 392 354 344 351 311 299 295 292 290 286 281 280 278 262 278 279 283 284 294 314 376 341 261 255 241 223 224 235 229 228 223 231 227 226 236 231 242 241 241 242 255 267 282
349 336 335 344 337 307 292 287 285 282 283 284 282 280 283 285 301 311 354 375 290 261 254 244 227 222 234 238 226 223 227 226 232 235 228 231 236 238 242 244 255 266 282 305
333 340 343 342 330 305 292 288 289 288 285 287 293 301 313 335 365 276 263 259 250 234 225 230 237 232 226 232 232 228 232 237 233 230 231 235 239 242 243 258 265 282 306 393
326 330 334 327 323 317 311 305 305 309 313 320 336 340 282 262 255 251 230 228 227 235 237 226 221 232 228 227 235 239 233 229 234 238 236 242 246 251 263 269 285 312 353 345
316 320 323 323 321 321 320 317 322 331 322 289 264 259 256 235 229 229 231 234 231 225 226 234 232 232 236 233 228 230 236 237 240 243 242 248 257 267 278 293 320 360 344 329
327 332 336 337 337 335 310 295 276 265 258 244 237 238 237 233 229 222 222 225 228 232 233 231 231 232 231 234 233 238 242 244 243 248 257 265 274 289 299 336 346 331 332 320

GFSNGP_2pvu_pres_168.txt.gz
Presure
214 224 208 217 217 223 213 222 216 233 237 242 225 225 234 219 267 274 278 260 254 209 228 243 234 264 261 274 266 275 272 266 257 274 283 283 270 270 264 268 271 289 282 269
231 241 226 250 253 224 225 226 241 252 255 243 232 249 278 278 251 238 255 258 251 251 260 260 260 270 269 275 273 271 262 257 272 277 279 273 269 262 262 274 280 290 273 264
251 242 239 243 251 223 243 246 244 261 261 250 288 281 272 254 258 257 248 253 260 261 267 272 265 271 269 267 267 260 261 284 281 276 274 271 263 260 273 278 288 280 268 261
278 245 258 256 268 275 309 298 293 307 279 284 277 272 270 267 253 269 274 271 268 271 266 266 266 264 265 265 262 269 282 284 278 274 265 263 258 269 273 285 280 271 261 253
286 313 339 348 290 321 313 316 303 293 285 276 265 274 254 255 264 258 262 260 263 263 262 261 262 268 266 270 278 280 276 276 273 266 265 255 266 270 271 279 282 268 256 252
342 336 341 334 322 269 314 314 288 286 287 282 277 281 270 265 264 261 260 263 261 264 272 268 273 299 286 269 275 265 272 264 267 260 256 272 268 267 275 278 275 267 253 252
341 339 332 334 324 317 314 309 302 293 285 278 272 269 277 274 272 272 269 267 262 266 276 276 271 286 274 272 274 279 270 264 254 259 274 272 284 381 306 280 267 257 260 251
333 336 336 341 343 334 337 330 324 319 313 302 294 295 292 279 275 270 266 267 274 263 271 276 271 278 268 271 279 271 262 255 260 269 269 284 361 321 284 285 264 266 239 231
305 305 311 318 316 322 315 307 298 297 291 287 284 281 280 277 269 269 269 267 264 266 273 279 279 272 268 274 271 262 252 255 268 266 278 341 301 283 285 271 255 236 233 232
314 306 311 310 304 302 307 293 291 284 282 281 281 282 286 288 287 291 279 276 274 268 287 282 274 273 274 265 263 251 253 265 264 270 309 294 276 279 282 241 235 233 234 232
299 305 307 309 307 302 294 298 277 276 275 272 270 269 270 272 279 277 269 269 272 275 285 278 270 271 263 261 251 255 263 267 264 284 309 270 275 254 240 233 235 235 233 230
298 298 294 286 304 290 290 279 285 283 274 273 271 269 269 267 271 274 277 279 271 212 269 272 271 262 263 251 254 265 267 261 274 305 272 265 260 236 234 231 230 232 231 226
291 292 299 285 286 296 284 285 284 281 279 280 271 266 279 279 276 279 281 296 296 293 283 273 261 265 252 249 266 258 261 267 289 301 259 265 245 235 232 226 229 236 227 230
307 305 299 303 305 293 289 297 285 276 278 277 276 277 278 275 281 285 287 274 287 285 272 264 265 253 248 257 267 261 257 277 329 270 261 255 239 234 230 228 235 227 225 231
291 293 294 294 295 297 301 303 304 297 210 283 279 281 282 282 283 288 291 296 288 272 265 268 234 253 251 261 267 261 264 286 304 263 258 240 236 234 230 235 228 224 231 224
286 297 281 291 291 298 302 304 301 297 299 299 296 296 297 298 301 305 298 286 275 266 270 265 257 259 252 264 257 264 273 297 269 259 250 237 234 235 236 228 225 233 226 219
300 292 272 274 299 298 318 318 300 303 296 297 305 299 305 305 303 288 279 281 167 269 267 175 257 253 263 270 262 264 278 300 260 256 247 238 238 237 228 226 231 226 222 226
281 277 284 283 304 285 313 310 338 330 306 300 296 287 295 287 287 274 279 278 272 265 263 260 259 259 258 266 265 269 283 268 253 250 246 240 237 229 228 234 228 224 225 221
285 294 300 308 314 299 321 347 349 324 344 310 299 292 282 285 275 287 286 270 272 273 269 264 263 269 268 268 266 278 285 258 250 245 240 236 227 233 234 230 220 222 226 238
277 300 316 342 423 393 315 341 354 330 308 305 300 303 298 298 293 276 276 277 275 271 266 267 277 276 276 274 282 290 262 251 247 244 226 231 236 233 220 223 228 231 233 230
297 319 386 352 368 350 359 353 351 335 308 289 293 295 288 284 279 284 276 273 274 273 274 271 276 275 284 291 311 267 251 249 224 231 238 227 224 222 223 228 232 238 235 241
347 359 334 395 388 376 348 349 334 319 317 302 296 284 283 283 284 279 280 273 270 276 276 284 292 304 346 274 262 246 225 228 239 235 225 227 228 228 232 237 233 239 241 242
345 342 347 337 340 336 343 337 324 312 293 293 299 299 295 288 284 281 276 279 281 285 299 321 308 265 258 236 227 228 235 232 226 226 230 229 235 236 231 237 240 243 248 249
322 330 338 339 341 338 337 329 315 303 300 295 286 285 279 276 282 285 288 292 310 351 268 260 241 229 230 236 236 234 223 226 231 230 235 235 229 236 240 244 247 246 252 266
313 318 321 325 329 331 328 327 311 301 295 294 285 281 290 292 292 310 336 269 259 246 234 231 232 237 237 233 225 228 232 235 237 233 233 231 237 243 246 243 249 263 270 284
308 311 314 316 317 321 325 326 316 305 302 303 304 303 318 331 296 263 256 241 233 233 232 231 229 228 228 230 236 237 236 233 234 231 235 240 242 245 251 261 265 278 295 309
323 323 325 327 328 327 326 325 324 326 326 330 307 281 263 257 242 237 236 235 232 229 228 229 229 231 234 233 234 231 232 235 236 239 241 244 250 256 265 275 289 303 339 337

GFSNGP_2pvu_pres_171.txt.gz
Presure
227 230 220 224 214 223 228 227 230 222 219 68 222 218 211 208 221 211 213 231 235 240 234 248 274 270 258 249 255 251 258 260 265 274 277 271 267 279 282 284 280 276 267 268
230 234 236 230 235 229 235 222 228 234 244 223 213 240 219 224 222 245 248 242 232 258 280 271 270 253 254 259 251 261 271 277 275 269 266 264 274 279 279 283 275 265 263 273
246 242 235 259 139 237 240 242 241 231 247 237 239 243 254 264 239 242 248 280 286 279 268 253 261 261 244 255 264 265 267 266 267 271 272 272 278 280 278 272 267 262 265 276
256 256 192 257 254 256 254 243 259 262 260 283 272 258 264 290 292 298 288 287 273 272 266 265 254 261 265 260 261 256 261 277 288 284 270 275 270 276 273 269 260 262 272 275
263 266 290 266 262 270 288 283 296 281 325 320 321 332 333 286 289 283 273 272 264 253 261 258 261 254 251 256 256 260 266 278 281 268 269 264 271 271 266 260 262 273 271 277
316 315 323 329 321 326 411 383 370 338 332 336 336 325 305 292 284 280 271 259 250 259 254 261 251 253 259 260 261 266 268 265 274 268 273 279 274 261 264 271 272 294 384 285
321 326 340 331 329 337 320 307 346 344 321 307 302 295 308 291 271 263 275 277 267 258 253 257 259 260 270 270 276 271 285 277 268 270 280 271 262 261 268 271 317 356 314 285
320 326 340 336 325 323 323 316 317 314 321 324 310 307 282 285 285 269 262 259 264 261 271 275 272 264 265 272 266 284 274 267 267 275 268 262 258 268 270 297 326 305 283 281
312 300 286 289 297 302 300 303 317 327 316 302 291 298 299 285 280 280 268 268 267 269 269 258 260 259 263 268 255 276 272 271 278 268 260 253 266 266 269 315 288 278 284 275
315 298 297 290 290 289 295 305 313 313 301 292 288 286 284 280 280 282 279 274 272 269 267 265 261 274 276 272 275 269 272 276 266 256 253 260 265 266 304 287 274 278 282 254
308 297 293 302 299 302 306 299 297 288 289 278 280 274 277 279 276 276 289 288 284 280 290 289 267 270 274 281 270 269 277 266 259 253 261 266 262 286 309 270 273 270 240 231
298 299 296 290 295 306 301 302 289 285 282 277 273 265 268 268 270 271 265 268 266 269 278 264 268 261 274 279 270 273 271 261 250 264 265 259 266 304 276 265 267 236 233 233
274 290 292 298 303 311 284 284 292 282 274 277 273 272 271 270 269 271 271 273 271 273 267 270 276 282 287 268 278 273 264 251 253 264 255 265 288 307 266 264 250 234 231 233
278 284 290 290 296 296 308 277 275 280 282 276 274 279 279 280 279 272 280 278 274 277 268 280 294 287 284 275 267 271 254 249 254 265 259 270 302 280 258 262 241 239 232 231
285 284 288 279 281 287 289 293 306 286 282 278 281 278 274 273 271 272 278 275 278 283 273 281 290 287 279 267 266 262 254 250 256 263 262 281 298 266 259 258 239 236 234 233
273 281 281 283 287 286 288 293 289 294 301 304 286 280 276 277 278 277 274 275 276 281 283 284 297 283 268 266 267 252 257 253 263 261 265 282 278 260 258 251 238 237 235 237
274 280 295 295 281 290 291 291 305 296 294 296 306 314 319 294 287 284 282 286 287 293 304 308 279 240 265 269 264 261 254 259 264 262 267 281 273 259 253 249 240 236 237 234
281 292 281 278 281 282 290 294 309 296 331 314 333 333 319 309 306 302 299 301 303 307 290 278 272 269 265 263 265 260 258 262 264 265 271 280 267 257 256 250 246 239 228 230
274 152 270 285 290 291 302 319 348 401 392 317 329 330 371 318 300 304 296 292 297 286 271 275 273 267 264 266 262 263 262 265 271 264 276 280 261 253 250 244 230 227 233 228
273 271 285 270 304 320 352 369 355 421 430 403 341 357 346 312 313 297 288 280 282 269 272 277 270 264 272 274 268 266 273 281 273 277 287 275 258 250 241 228 234 229 226 226
270 282 298 307 331 371 351 405 423 410 318 331 344 327 334 335 313 306 290 284 284 288 284 271 273 276 269 268 272 273 275 285 292 324 277 255 242 226 232 232 228 227 230 234
270 289 309 328 341 337 334 383 340 332 349 347 335 329 310 303 301 301 300 291 286 274 277 278 274 272 267 269 279 290 316 356 275 265 227 227 232 235 228 228 230 236 238 232
287 306 328 320 328 327 327 334 340 341 332 325 318 319 299 295 297 294 289 282 282 282 283 270 267 275 283 300 323 307 264 253 229 228 234 235 229 228 229 235 238 233 231 234
299 325 316 314 326 335 339 334 335 331 321 316 314 314 310 297 295 293 291 290 286 278 274 281 289 303 327 267 257 239 229 236 238 235 229 231 236 239 237 232 234 231 240 243
343 314 309 308 311 314 326 328 326 316 313 311 302 295 296 294 289 280 276 279 285 287 297 306 272 261 250 236 232 235 236 232 229 233 237 237 235 230 234 235 238 246 244 251
324 308 305 307 309 311 312 317 319 317 313 303 298 295 287 279 283 288 290 299 311 309 265 258 242 231 234 234 232 230 231 232 236 237 237 233 235 235 236 243 243 250 253 260
324 319 315 314 317 322 323 320 319 320 324 323 311 302 301 306 313 318 290 267 261 252 238 235 235 232 233 233 232 235 237 237 234 233 236 236 238 242 243 248 252 256 265 277

GFSNGP_2pvu_pres_174.txt.gz
Presure
229 215 221 225 233 219 214 225 225 223 225 232 77 220 195 216 220 220 222 220 228 218 223 229 223 221 212 219 232 234 251 244 275 267 265 253 254 253 269 286 285 282 281 289
235 238 232 235 229 230 139 223 231 223 235 239 231 224 239 241 222 228 228 227 227 229 232 234 252 227 233 230 237 266 275 271 266 255 251 261 267 264 277 276 280 278 276 279
256 241 239 250 129 246 243 234 227 231 234 234 238 251 246 237 242 254 252 244 238 262 235 253 254 262 257 254 272 273 264 259 258 252 266 260 256 273 288 282 274 273 274 269
255 256 262 265 251 253 250 248 253 255 252 257 260 261 260 257 269 277 269 266 298 289 287 293 281 284 265 264 256 255 255 262 261 258 249 254 266 272 278 266 267 273 280 276
276 263 300 314 288 281 290 287 285 280 284 272 277 286 313 325 317 316 299 333 310 317 295 293 285 268 267 261 254 251 251 249 255 250 263 273 271 281 268 272 283 282 273 262
307 313 315 323 314 313 321 325 333 338 338 344 361 379 343 321 322 305 273 285 307 295 285 261 270 265 260 258 247 251 251 246 258 255 259 269 283 277 271 271 277 273 261 266
315 303 316 308 312 317 329 329 344 320 303 315 314 319 304 347 326 306 272 267 277 276 278 271 266 260 256 248 251 250 249 252 250 262 268 259 277 267 270 278 269 262 267 279
307 302 303 321 311 307 298 292 296 303 308 303 303 324 325 323 293 284 282 279 280 267 263 266 271 271 264 265 258 253 251 268 267 262 269 273 273 273 280 271 261 259 276 273
312 309 306 292 291 290 292 303 307 312 320 313 314 308 297 308 281 271 277 272 252 254 255 253 250 251 247 247 252 263 262 257 258 261 282 279 269 276 270 260 258 267 269 309
275 271 294 298 288 290 284 290 295 297 305 300 304 301 291 301 281 260 261 268 257 285 268 256 255 256 251 262 262 260 260 262 268 274 273 275 272 264 262 256 265 266 275 296
269 269 263 272 288 291 287 285 289 289 291 285 297 290 284 274 281 284 287 283 274 269 274 277 279 273 268 260 262 270 279 283 293 275 276 273 266 266 254 263 265 264 333 281
255 260 295 292 281 302 299 299 300 304 303 290 287 284 278 273 270 277 275 279 274 277 283 283 276 275 282 271 279 258 261 293 283 274 278 270 265 253 262 265 258 305 291 270
273 269 268 274 289 287 285 287 282 293 293 287 290 284 271 264 262 267 273 274 272 270 275 265 249 256 267 275 266 271 267 283 278 270 278 265 262 252 262 256 263 312 280 265
279 273 280 284 286 291 298 296 293 290 289 292 282 281 271 270 271 273 272 269 268 264 263 262 263 256 262 278 278 284 280 283 278 276 266 262 257 252 264 260 260 295 274 263
271 271 286 293 287 282 286 285 285 298 288 277 282 279 279 274 267 269 271 268 265 270 272 272 264 267 274 282 273 285 289 282 273 265 264 256 258 254 263 258 268 288 268 261
278 272 279 279 276 281 287 286 281 282 281 297 283 274 277 275 269 189 281 278 278 275 282 275 275 272 273 275 283 287 196 272 268 264 264 259 256 257 264 255 276 278 263 262
275 282 275 276 273 282 286 295 304 285 293 295 302 301 301 279 276 273 268 268 272 268 270 271 273 273 282 283 283 296 278 271 263 267 266 262 252 260 262 257 275 277 262 260
271 198 274 275 282 285 286 274 276 290 287 306 310 306 304 324 323 304 288 277 274 275 270 269 270 281 281 283 299 277 272 266 267 265 264 256 258 263 264 265 276 277 264 264
277 274 273 288 283 264 277 281 288 297 310 335 385 384 345 408 338 308 315 327 304 284 275 280 280 278 286 301 271 270 268 265 268 267 257 262 264 269 278 266 286 276 260 253
167 223 286 265 262 273 281 288 311 268 351 355 433 434 424 424 427 330 341 329 323 315 307 285 290 301 286 270 268 274 270 271 268 268 271 268 276 279 280 287 293 258 231 230
281 291 257 274 268 282 304 307 325 333 341 387 398 323 333 343 344 359 362 349 319 304 300 292 285 279 273 270 271 275 270 270 272 266 275 273 291 355 333 272 230 227 232 235
271 268 268 281 285 301 308 325 327 335 339 339 334 340 350 341 330 328 330 325 308 306 289 289 280 282 272 276 278 274 275 269 269 273 287 342 314 264 236 228 232 233 228 232
284 277 294 295 296 307 334 316 324 335 340 347 348 349 338 326 323 319 312 306 304 301 296 288 286 287 280 275 276 274 268 274 284 335 290 255 239 229 234 236 229 234 240 237
305 309 292 289 321 330 310 313 322 331 341 338 332 318 311 314 299 288 292 293 293 290 283 283 276 278 284 281 271 274 291 341 272 250 232 230 237 232 230 237 239 237 233 232
300 301 321 327 325 306 307 308 316 323 327 321 316 312 310 307 303 299 295 294 294 294 292 288 283 278 277 280 298 330 265 249 232 234 234 228 232 236 236 232 230 233 236 238
348 349 338 334 307 305 308 310 313 321 319 320 313 306 300 296 295 289 287 286 281 278 278 283 289 297 320 311 262 248 235 232 229 233 236 237 232 230 232 235 235 238 241 244
371 354 330 321 308 304 303 309 318 322 319 323 324 317 301 292 291 290 290 293 299 307 316 331 293 264 254 239 231 233 235 235 236 232 229 232 233 235 237 240 242 246 249 251